Starlink 36176

operational
NORAD ID: 67026 Int'l Des: 2025-293 Owner: SPXS Country: US Constellation: starlink
LEOCIRCULAR

Starlink 36176について

説明を読み込み中...

リアルタイム位置

3D地球を読み込み中...

次回通過

高度履歴

Altitude vs Time

uPlot chart will show altitude changes over time

軌道要素

1 67026C 25293Z 25346.10187500 .00087863 00000+0 11682-3 0 3462
2 67026 69.9969 325.9317 0005241 264.3580 191.7580 16.06326418 10
Epoch: Dec 12, 2025 • Age: 57 hours

現在のステータス

高度 261.2 km
速度 7.75 km/s
衛星直下点 -15.62°S, 91.01°E
打ち上げ日 Dec 10, 2025
運用期間 3 days
タイプ internet

技術仕様

分類 Payload
質量 575.00 kg
乾燥質量 530.00 kg
総質量 575.00 kg
長さ 0.30 m
直径 4.10 m
スパン 29.00 m
形状 Box + pan
製造者 SPXS
バスタイプ Starlink V2MO
フェーズステータス In Orbit
所有者/国 SPXS/US

大規模コンステレーション

Loading constellations...